Simultaneous Nadir Overpasses (SNOs) Predictions

Prediction of SNOs between TERRA and METOP-C Satellite Orbit:

Table of predicted SNOs for the next 14.0 days since TLE Epoch: 9/9/2023
Index Date (TERRA) Time (TERRA) Lat,Lon (TERRA) SZA (TERRA ) Date (METOP-C) Time (METOP-C) Lat,Lon (METOP-C) SZA (METOP-C ) Distance(km) Time Diff (sec)
1 09/09/2023 16:13:38 80.67, -33.61 76.70 09/09/2023 16:13:36 80.66, -33.68 76.69 1.48 2
2 09/09/2023 17:02:16 -81.68, 150.18 100.95 09/09/2023 17:03:30 -81.33, 150.63 101.11 40.68 74
3 09/12/2023 07:34:59 -80.64, -84.29 102.34 09/12/2023 07:34:31 -80.65, -84.17 102.33 2.24 28
4 09/12/2023 08:24:19 80.71, 84.12 77.80 09/12/2023 08:25:10 80.70, 83.98 77.80 2.51 51
5 09/14/2023 22:56:20 80.60,-134.99 78.63 09/14/2023 22:55:28 80.61,-134.93 78.63 1.27 52
6 09/14/2023 23:45:39 -80.70, 33.65 101.20 09/14/2023 23:46:04 -80.70, 33.81 101.17 2.93 25
7 09/17/2023 15:07:00 80.65, -17.25 79.75 09/17/2023 15:07:02 80.64, -17.38 79.74 2.40 2
8 09/20/2023 06:28:18 -80.65, -67.60 99.22 09/20/2023 06:27:55 -80.64, -67.59 99.23 0.46 23
9 09/20/2023 07:17:38 80.70, 100.67 80.90 09/20/2023 07:18:33 80.71, 100.80 80.94 2.68 55
10 09/22/2023 21:49:38 80.59,-118.56 81.73 09/22/2023 21:48:52 80.59,-118.61 81.71 0.94 46



Historial Predications of SNOs between TERRA and METOP-C
